Time,TemperatureF,DewpointF,PressureIn,WindDirection,WindDirectionDegrees,WindSpeedMPH,WindSpeedGustMPH,Humidity,HourlyPrecipIn,Conditions,Clouds,dailyrainin,SoftwareType,DateUTC
2013-02-11 00:05:00,42.3,23.4,29.89,NW,305,0.0,0.0,47,0.00,CLR,,0.00,WeatherDisplay:10.37,2013-02-11 05:05:00,
2013-02-11 00:10:00,42.1,24.8,29.89,NNW,336,0.0,1.0,50,0.00,CLR,,0.00,WeatherDisplay:10.37,2013-02-11 05:10:00,
2013-02-11 00:15:00,41.4,26.0,29.88,NNW,338,0.0,4.0,54,0.00,CLR,,0.00,WeatherDisplay:10.37,2013-02-11 05:15:00,
2013-02-11 00:20:00,40.7,27.8,29.89,NW,325,0.0,0.0,60,0.00,CLR,,0.00,WeatherDisplay:10.37,2013-02-11 05:20:00,
2013-02-11 00:25:00,40.5,28.5,29.88,NW,307,0.0,0.0,62,0.00,CLR,,0.00,WeatherDisplay:10.37,2013-02-11 05:25:00,
2013-02-11 00:30:00,40.0,28.8,29.88,NW,308,0.0,0.0,64,0.00,CLR,,0.00,WeatherDisplay:10.37,2013-02-11 05:30:00,
2013-02-11 00:35:00,39.6,29.1,29.87,NNW,348,0.0,0.0,66,0.02,RA,,0.02,WeatherDisplay:10.37,2013-02-11 05:35:00,
2013-02-11 00:40:00,39.4,29.3,29.88,NNW,339,0.0,0.0,67,0.00,RA,,0.02,WeatherDisplay:10.37,2013-02-11 05:40:00,
2013-02-11 00:45:00,39.0,29.7,29.88,North,9,0.0,0.0,69,0.00,,,0.02,WeatherDisplay:10.37,2013-02-11 05:45:00,
2013-02-11 00:50:00,38.8,29.9,29.88,North,10,0.0,0.0,70,0.00,CLR,,0.02,WeatherDisplay:10.37,2013-02-11 05:50:00,
2013-02-11 00:55:00,38.7,29.7,29.88,North,11,0.0,0.0,70,0.00,CLR,,0.02,WeatherDisplay:10.37,2013-02-11 05:55:00,
2013-02-11 01:00:00,38.7,30.1,29.86,NNE,19,0.0,0.0,71,0.00,CLR,,0.02,WeatherDisplay:10.37,2013-02-11 06:00:00,
2013-02-11 01:05:00,38.5,30.2,29.84,NNE,15,0.0,0.0,72,0.00,CLR,,0.02,WeatherDisplay:10.37,2013-02-11 06:05:00,
2013-02-11 01:10:00,38.3,30.4,29.84,NNE,12,0.0,1.0,73,0.00,CLR,,0.02,WeatherDisplay:10.37,2013-02-11 06:10:00,
2013-02-11 01:15:00,38.1,30.9,29.83,NNW,328,0.0,1.0,75,0.00,CLR,,0.02,WeatherDisplay:10.37,2013-02-11 06:15:00,
2013-02-11 01:25:00,38.1,31.2,29.84,NW,310,0.0,0.0,76,0.00,CLR,,0.02,WeatherDisplay:10.37,2013-02-11 06:25:00,
2013-02-11 01:30:00,37.9,31.0,29.82,WNW,299,0.0,0.0,76,0.00,CLR,,0.02,WeatherDisplay:10.37,2013-02-11 06:30:00,
2013-02-11 01:35:00,37.9,31.4,29.82,NW,316,0.0,0.0,77,0.00,CLR,,0.02,WeatherDisplay:10.37,2013-02-11 06:35:00,
2013-02-11 01:40:00,37.9,31.4,29.82,NNW,343,0.0,0.0,77,0.00,CLR,,0.02,WeatherDisplay:10.37,2013-02-11 06:40:00,
2013-02-11 01:45:00,37.9,31.4,29.82,North,0,0.0,0.0,77,0.00,CLR,,0.02,WeatherDisplay:10.37,2013-02-11 06:45:00,
2013-02-11 01:50:00,37.8,31.2,29.83,North,0,0.0,0.0,77,0.00,CLR,,0.02,WeatherDisplay:10.37,2013-02-11 06:50:00,
2013-02-11 01:55:00,37.8,31.5,29.83,NNE,25,0.0,0.0,78,0.00,CLR,,0.02,WeatherDisplay:10.37,2013-02-11 06:55:00,
2013-02-11 02:00:00,37.8,31.5,29.82,NNE,17,0.0,0.0,78,0.00,CLR,,0.02,WeatherDisplay:10.37,2013-02-11 07:00:00,
2013-02-11 02:10:00,37.8,31.8,29.82,North,4,0.0,0.0,79,0.00,CLR,,0.02,WeatherDisplay:10.37,2013-02-11 07:10:00,
2013-02-11 02:20:00,37.8,31.8,29.81,NNW,338,0.0,0.0,79,0.00,CLR,,0.02,WeatherDisplay:10.37,2013-02-11 07:20:00,
2013-02-11 02:25:00,37.8,31.8,29.80,NNW,338,0.0,0.0,79,0.00,CLR,,0.02,WeatherDisplay:10.37,2013-02-11 07:25:00,
2013-02-11 02:30:00,37.8,32.1,29.80,NNW,338,0.0,0.0,80,0.00,CLR,,0.02,WeatherDisplay:10.37,2013-02-11 07:30:00,
2013-02-11 02:35:00,37.8,32.1,29.79,NNW,338,0.0,0.0,80,0.00,CLR,,0.02,WeatherDisplay:10.37,2013-02-11 07:35:00,
2013-02-11 02:40:00,37.8,32.1,29.79,NNW,338,0.0,0.0,80,0.00,CLR,,0.02,WeatherDisplay:10.37,2013-02-11 07:40:00,
2013-02-11 02:45:00,37.6,32.0,29.79,NNW,338,0.0,0.0,80,0.00,CLR,,0.02,WeatherDisplay:10.37,2013-02-11 07:45:00,
2013-02-11 02:50:00,37.8,32.1,29.78,NNW,338,0.0,0.0,80,0.00,CLR,,0.02,WeatherDisplay:10.37,2013-02-11 07:50:00,
2013-02-11 02:55:00,37.8,32.5,29.78,North,349,0.0,0.0,81,0.00,CLR,,0.02,WeatherDisplay:10.37,2013-02-11 07:55:00,
2013-02-11 03:00:00,37.9,32.6,29.78,ENE,75,0.0,0.0,81,0.00,CLR,,0.02,WeatherDisplay:10.37,2013-02-11 08:00:00,
2013-02-11 03:05:00,38.1,32.8,29.78,ESE,112,0.0,0.0,81,0.00,CLR,,0.02,WeatherDisplay:10.37,2013-02-11 08:05:00,
2013-02-11 03:10:00,38.1,33.1,29.78,ESE,112,0.0,0.0,82,0.00,CLR,,0.02,WeatherDisplay:10.37,2013-02-11 08:10:00,
2013-02-11 03:15:00,38.1,33.1,29.78,ESE,103,0.0,0.0,82,0.00,CLR,,0.02,WeatherDisplay:10.37,2013-02-11 08:15:00,
2013-02-11 03:20:00,38.1,33.1,29.78,East,81,0.0,0.0,82,0.00,CLR,,0.02,WeatherDisplay:10.37,2013-02-11 08:20:00,
2013-02-11 03:30:00,38.3,33.6,29.77,ENE,58,0.0,0.0,83,0.00,CLR,,0.02,WeatherDisplay:10.37,2013-02-11 08:30:00,
2013-02-11 03:35:00,38.3,33.6,29.77,NE,46,0.0,0.0,83,0.00,CLR,,0.02,WeatherDisplay:10.37,2013-02-11 08:35:00,
2013-02-11 03:40:00,38.3,33.6,29.77,NE,45,0.0,0.0,83,0.00,CLR,,0.02,WeatherDisplay:10.37,2013-02-11 08:40:00,
2013-02-11 03:45:00,38.3,33.9,29.76,NNE,19,0.0,0.0,84,0.00,CLR,,0.02,WeatherDisplay:10.37,2013-02-11 08:45:00,
2013-02-11 03:55:00,38.3,33.9,29.76,NNW,338,0.0,0.0,84,0.00,CLR,,0.02,WeatherDisplay:10.37,2013-02-11 08:55:00,
2013-02-11 04:00:00,38.3,33.9,29.76,NNW,338,0.0,0.0,84,0.00,CLR,,0.02,WeatherDisplay:10.37,2013-02-11 09:00:00,
2013-02-11 04:05:00,38.3,33.9,29.76,NNW,338,0.0,0.0,84,0.00,CLR,,0.02,WeatherDisplay:10.37,2013-02-11 09:05:00,
2013-02-11 04:10:00,38.3,33.9,29.76,NNW,338,0.0,0.0,84,0.00,CLR,,0.02,WeatherDisplay:10.37,2013-02-11 09:10:00,
2013-02-11 04:15:00,38.3,33.9,29.76,NNW,338,0.0,0.0,84,0.00,CLR,,0.02,WeatherDisplay:10.37,2013-02-11 09:15:00,
2013-02-11 04:20:00,38.3,34.2,29.76,NNW,338,0.0,0.0,85,0.02,RA,,0.04,WeatherDisplay:10.37,2013-02-11 09:20:00,
2013-02-11 04:25:00,38.3,34.2,29.76,NNW,338,0.0,0.0,85,0.00,RA,,0.04,WeatherDisplay:10.37,2013-02-11 09:25:00,
2013-02-11 04:30:00,38.6,34.5,29.76,NNW,338,0.0,0.0,85,0.00,CLR,,0.04,WeatherDisplay:10.37,2013-02-11 09:30:00,
2013-02-11 04:35:00,38.4,34.3,29.76,NNW,338,0.0,0.0,85,0.00,CLR,,0.04,WeatherDisplay:10.37,2013-02-11 09:35:00,
2013-02-11 04:40:00,38.5,34.4,29.76,NNW,338,0.0,0.0,85,0.00,CLR,,0.04,WeatherDisplay:10.37,2013-02-11 09:40:00,
2013-02-11 04:45:00,38.3,34.2,29.76,NNW,338,0.0,0.0,85,0.00,CLR,,0.04,WeatherDisplay:10.37,2013-02-11 09:45:00,
2013-02-11 04:50:00,38.3,34.2,29.75,NNW,338,0.0,0.0,85,0.00,CLR,,0.04,WeatherDisplay:10.37,2013-02-11 09:50:00,
2013-02-11 04:55:00,38.5,34.7,29.75,NNW,338,0.0,0.0,86,0.00,CLR,,0.04,WeatherDisplay:10.37,2013-02-11 09:55:00,
2013-02-11 05:00:00,38.3,34.5,29.75,NNW,338,0.0,0.0,86,0.00,CLR,,0.04,WeatherDisplay:10.37,2013-02-11 10:00:00,
2013-02-11 05:05:00,38.3,34.5,29.75,NNW,338,0.0,0.0,86,0.00,CLR,,0.04,WeatherDisplay:10.37,2013-02-11 10:05:00,
2013-02-11 05:10:00,38.3,34.5,29.75,NNW,338,0.0,0.0,86,0.00,CLR,,0.04,WeatherDisplay:10.37,2013-02-11 10:10:00,
2013-02-11 05:20:00,38.2,34.4,29.76,NNW,338,0.0,0.0,86,0.00,CLR,,0.04,WeatherDisplay:10.37,2013-02-11 10:20:00,
2013-02-11 05:25:00,38.3,34.5,29.75,NNW,338,0.0,0.0,86,0.00,CLR,,0.04,WeatherDisplay:10.37,2013-02-11 10:25:00,
2013-02-11 05:30:00,38.3,34.5,29.75,NNW,338,0.0,0.0,86,0.00,CLR,,0.04,WeatherDisplay:10.37,2013-02-11 10:30:00,
2013-02-11 05:35:00,38.1,34.3,29.75,NNW,338,0.0,0.0,86,0.00,CLR,,0.04,WeatherDisplay:10.37,2013-02-11 10:35:00,
2013-02-11 05:45:00,37.9,34.1,29.75,NNW,338,0.0,0.0,86,0.00,CLR,,0.04,WeatherDisplay:10.37,2013-02-11 10:45:00,
2013-02-11 05:50:00,37.8,33.9,29.74,NNW,338,0.0,0.0,86,0.00,CLR,,0.04,WeatherDisplay:10.37,2013-02-11 10:50:00,
2013-02-11 05:55:00,37.6,33.8,29.74,NNW,338,0.0,0.0,86,0.00,CLR,,0.04,WeatherDisplay:10.37,2013-02-11 10:55:00,
2013-02-11 06:00:00,37.4,33.6,29.74,NNW,338,0.0,0.0,86,0.00,CLR,,0.04,WeatherDisplay:10.37,2013-02-11 11:00:00,
2013-02-11 06:05:00,37.2,33.4,29.74,NNW,338,0.0,0.0,86,0.00,CLR,,0.04,WeatherDisplay:10.37,2013-02-11 11:05:00,
2013-02-11 06:10:00,37.1,33.3,29.74,NNW,338,0.0,0.0,86,0.00,CLR,,0.04,WeatherDisplay:10.37,2013-02-11 11:10:00,
2013-02-11 06:15:00,37.2,33.4,29.74,NNW,338,0.0,0.0,86,0.00,CLR,,0.04,WeatherDisplay:10.37,2013-02-11 11:15:00,
2013-02-11 06:20:00,37.2,33.4,29.74,NNW,338,0.0,0.0,86,0.00,CLR,,0.04,WeatherDisplay:10.37,2013-02-11 11:20:00,
2013-02-11 06:25:00,37.5,33.7,29.74,NNW,338,0.0,0.0,86,0.00,CLR,,0.04,WeatherDisplay:10.37,2013-02-11 11:25:00,
2013-02-11 06:30:00,37.6,34.1,29.74,NNW,338,0.0,0.0,87,0.00,CLR,,0.04,WeatherDisplay:10.37,2013-02-11 11:30:00,
2013-02-11 06:35:00,37.6,34.1,29.74,NNW,338,0.0,0.0,87,0.00,CLR,,0.04,WeatherDisplay:10.37,2013-02-11 11:35:00,
2013-02-11 06:40:00,37.6,34.1,29.74,NNW,338,0.0,0.0,87,0.00,CLR,,0.04,WeatherDisplay:10.37,2013-02-11 11:40:00,
2013-02-11 06:45:00,37.6,34.1,29.74,NNW,338,0.0,0.0,87,0.00,CLR,,0.04,WeatherDisplay:10.37,2013-02-11 11:45:00,
2013-02-11 06:50:00,37.2,33.7,29.74,NNW,338,0.0,0.0,87,0.00,CLR,,0.04,WeatherDisplay:10.37,2013-02-11 11:50:00,
2013-02-11 06:55:00,37.0,33.5,29.74,NNW,338,0.0,0.0,87,0.00,CLR,,0.04,WeatherDisplay:10.37,2013-02-11 11:55:00,
2013-02-11 07:00:00,37.0,33.5,29.74,NNW,338,0.0,0.0,87,0.00,CLR,,0.04,WeatherDisplay:10.37,2013-02-11 12:00:00,
2013-02-11 07:05:00,36.9,33.3,29.74,NNW,338,0.0,0.0,87,0.00,CLR,,0.04,WeatherDisplay:10.37,2013-02-11 12:05:00,
2013-02-11 07:10:00,36.5,33.0,29.74,NNW,338,0.0,0.0,87,0.00,CLR,,0.04,WeatherDisplay:10.37,2013-02-11 12:10:00,
2013-02-11 07:15:00,36.5,33.0,29.74,NNW,338,0.0,0.0,87,0.00,CLR,,0.04,WeatherDisplay:10.37,2013-02-11 12:15:00,
2013-02-11 07:20:00,36.5,33.0,29.74,NNW,338,0.0,0.0,87,0.00,CLR,,0.04,WeatherDisplay:10.37,2013-02-11 12:20:00,
2013-02-11 07:25:00,36.5,33.0,29.74,NNW,338,0.0,0.0,87,0.00,CLR,,0.04,WeatherDisplay:10.37,2013-02-11 12:25:00,
2013-02-11 07:30:00,36.9,33.6,29.74,NNW,338,0.0,0.0,88,0.00,CLR,,0.04,WeatherDisplay:10.37,2013-02-11 12:30:00,
2013-02-11 07:35:00,37.0,33.8,29.74,NNW,338,0.0,0.0,88,0.00,CLR,,0.04,WeatherDisplay:10.37,2013-02-11 12:35:00,
2013-02-11 07:40:00,37.4,34.2,29.74,NNW,338,0.0,0.0,88,0.00,CLR,,0.04,WeatherDisplay:10.37,2013-02-11 12:40:00,
2013-02-11 07:45:00,37.6,34.3,29.74,NNW,338,0.0,0.0,88,0.00,CLR,,0.04,WeatherDisplay:10.37,2013-02-11 12:45:00,
2013-02-11 07:50:00,37.8,34.8,29.73,NNW,338,0.0,0.0,89,0.00,CLR,,0.04,WeatherDisplay:10.37,2013-02-11 12:50:00,
2013-02-11 07:55:00,37.8,34.8,29.72,NNW,338,0.0,0.0,89,0.00,CLR,,0.04,WeatherDisplay:10.37,2013-02-11 12:55:00,
2013-02-11 08:00:00,37.8,34.8,29.72,NNW,338,0.0,0.0,89,0.00,CLR,,0.04,WeatherDisplay:10.37,2013-02-11 13:00:00,
2013-02-11 08:05:00,38.1,35.2,29.72,NNW,338,0.0,0.0,89,0.00,CLR,,0.04,WeatherDisplay:10.37,2013-02-11 13:05:00,
2013-02-11 08:10:00,38.1,35.2,29.72,NNW,338,0.0,0.0,89,0.00,CLR,,0.04,WeatherDisplay:10.37,2013-02-11 13:10:00,
2013-02-11 08:15:00,38.1,35.2,29.72,NNW,338,0.0,0.0,89,0.00,CLR,,0.04,WeatherDisplay:10.37,2013-02-11 13:15:00,
2013-02-11 08:20:00,38.4,35.7,29.72,NNW,338,0.0,0.0,90,0.00,CLR,,0.04,WeatherDisplay:10.37,2013-02-11 13:20:00,
2013-02-11 08:25:00,38.8,36.2,29.73,NNW,338,0.0,0.0,90,0.00,CLR,,0.04,WeatherDisplay:10.37,2013-02-11 13:25:00,
2013-02-11 08:35:00,40.5,38.0,29.73,NW,321,0.0,0.0,91,0.00,CLR,,0.04,WeatherDisplay:10.37,2013-02-11 13:35:00,
2013-02-11 08:40:00,41.4,39.2,29.72,NW,315,0.0,0.0,92,0.00,CLR,,0.04,WeatherDisplay:10.37,2013-02-11 13:40:00,
2013-02-11 08:45:00,42.0,39.9,29.72,NE,56,0.0,0.0,92,0.00,CLR,,0.04,WeatherDisplay:10.37,2013-02-11 13:45:00,
2013-02-11 08:50:00,43.1,40.7,29.72,NE,49,0.0,0.0,91,0.00,CLR,,0.04,WeatherDisplay:10.37,2013-02-11 13:50:00,
2013-02-11 08:55:00,43.7,41.5,29.71,NW,316,0.0,0.0,92,0.00,CLR,,0.04,WeatherDisplay:10.37,2013-02-11 13:55:00,
2013-02-11 09:00:00,44.7,42.2,29.71,NNW,334,0.0,0.0,91,0.00,CLR,,0.04,WeatherDisplay:10.37,2013-02-11 14:00:00,
2013-02-11 09:05:00,45.5,43.3,29.71,North,5,0.0,0.0,92,0.00,CLR,,0.04,WeatherDisplay:10.37,2013-02-11 14:05:00,
2013-02-11 09:10:00,46.2,44.0,29.71,NE,56,0.0,0.0,92,0.00,CLR,,0.04,WeatherDisplay:10.37,2013-02-11 14:10:00,
2013-02-11 09:15:00,47.5,45.3,29.70,ESE,104,0.0,0.0,92,0.00,CLR,,0.04,WeatherDisplay:10.37,2013-02-11 14:15:00,
2013-02-11 09:20:00,48.4,46.2,29.70,SE,137,0.0,0.0,92,0.00,CLR,,0.04,WeatherDisplay:10.37,2013-02-11 14:20:00,
2013-02-11 09:25:00,49.1,46.6,29.69,NW,324,0.0,0.0,91,0.00,CLR,,0.04,WeatherDisplay:10.37,2013-02-11 14:25:00,
2013-02-11 09:30:00,50.3,47.5,29.69,NNE,17,0.0,0.0,90,0.00,CLR,,0.04,WeatherDisplay:10.37,2013-02-11 14:30:00,
2013-02-11 09:35:00,50.9,48.1,29.68,NE,46,0.0,0.0,90,0.00,CLR,,0.04,WeatherDisplay:10.37,2013-02-11 14:35:00,
2013-02-11 09:40:00,51.5,48.1,29.67,East,86,0.0,0.0,88,0.00,CLR,,0.04,WeatherDisplay:10.37,2013-02-11 14:40:00,
2013-02-11 09:45:00,52.3,48.5,29.67,ESE,106,0.0,0.0,87,0.00,CLR,,0.04,WeatherDisplay:10.37,2013-02-11 14:45:00,
2013-02-11 09:50:00,52.7,48.0,29.66,ESE,103,0.0,0.0,84,0.00,CLR,,0.04,WeatherDisplay:10.37,2013-02-11 14:50:00,
2013-02-11 09:55:00,53.1,47.4,29.66,ESE,117,0.0,0.0,81,0.00,CLR,,0.04,WeatherDisplay:10.37,2013-02-11 14:55:00,
2013-02-11 10:00:00,53.6,47.2,29.66,SE,142,0.0,0.0,79,0.00,CLR,,0.04,WeatherDisplay:10.37,2013-02-11 15:00:00,
2013-02-11 10:05:00,53.8,46.4,29.66,SE,124,0.0,1.0,76,0.00,CLR,,0.04,WeatherDisplay:10.37,2013-02-11 15:05:00,
2013-02-11 10:10:00,54.1,46.0,29.66,East,101,0.0,5.0,74,0.00,CLR,,0.04,WeatherDisplay:10.37,2013-02-11 15:10:00,
2013-02-11 10:15:00,54.7,45.5,29.66,ESE,109,1.0,5.0,71,0.00,CLR,,0.04,WeatherDisplay:10.37,2013-02-11 15:15:00,
2013-02-11 10:20:00,54.9,44.1,29.65,ESE,111,6.0,7.0,67,0.00,CLR,,0.04,WeatherDisplay:10.37,2013-02-11 15:20:00,
2013-02-11 10:25:00,55.0,43.1,29.66,ESE,105,1.0,7.0,64,0.00,CLR,,0.04,WeatherDisplay:10.37,2013-02-11 15:25:00,
2013-02-11 10:30:00,55.2,42.0,29.65,ESE,115,2.0,5.0,61,0.00,CLR,,0.04,WeatherDisplay:10.37,2013-02-11 15:30:00,
2013-02-11 10:35:00,55.2,41.1,29.65,ESE,117,0.0,2.0,59,0.00,CLR,,0.04,WeatherDisplay:10.37,2013-02-11 15:35:00,
2013-02-11 10:40:00,55.4,40.9,29.65,ESE,119,0.0,5.0,58,0.00,CLR,,0.04,WeatherDisplay:10.37,2013-02-11 15:40:00,
2013-02-11 10:45:00,55.6,40.6,29.65,SSE,153,0.0,5.0,57,0.00,CLR,,0.04,WeatherDisplay:10.37,2013-02-11 15:45:00,
2013-02-11 10:50:00,55.8,39.8,29.65,ESE,109,0.0,7.0,55,0.00,CLR,,0.04,WeatherDisplay:10.37,2013-02-11 15:50:00,
2013-02-11 10:55:00,55.9,39.5,29.65,ESE,107,0.0,4.0,54,0.00,CLR,,0.04,WeatherDisplay:10.37,2013-02-11 15:55:00,
2013-02-11 11:00:00,56.1,38.7,29.63,ESE,102,8.0,11.0,52,0.00,CLR,,0.04,WeatherDisplay:10.37,2013-02-11 16:00:00,
2013-02-11 11:05:00,55.9,37.6,29.63,ENE,57,0.0,11.0,50,0.00,CLR,,0.04,WeatherDisplay:10.37,2013-02-11 16:05:00,
2013-02-11 11:10:00,56.1,37.2,29.63,ENE,61,0.0,6.0,49,0.00,CLR,,0.04,WeatherDisplay:10.37,2013-02-11 16:10:00,
2013-02-11 11:15:00,56.1,36.7,29.63,ESE,117,2.0,2.0,48,0.00,CLR,,0.04,WeatherDisplay:10.37,2013-02-11 16:15:00,
2013-02-11 11:20:00,56.1,37.2,29.62,East,86,0.0,4.0,49,0.00,CLR,,0.04,WeatherDisplay:10.37,2013-02-11 16:20:00,
2013-02-11 11:25:00,56.1,37.2,29.62,East,81,2.0,3.0,49,0.00,CLR,,0.04,WeatherDisplay:10.37,2013-02-11 16:25:00,
2013-02-11 11:30:00,56.3,36.3,29.63,East,93,1.0,2.0,47,0.00,CLR,,0.04,WeatherDisplay:10.37,2013-02-11 16:30:00,
2013-02-11 11:40:00,56.1,33.9,29.62,SSE,163,0.0,4.0,43,0.00,CLR,,0.04,WeatherDisplay:10.37,2013-02-11 16:40:00,
2013-02-11 11:45:00,56.3,33.5,29.62,SSE,156,3.0,5.0,42,0.00,CLR,,0.04,WeatherDisplay:10.37,2013-02-11 16:45:00,
2013-02-11 11:50:00,56.3,32.9,29.62,SSE,149,2.0,6.0,41,0.00,CLR,,0.04,WeatherDisplay:10.37,2013-02-11 16:50:00,
2013-02-11 11:55:00,56.5,33.1,29.62,SE,141,2.0,2.0,41,0.00,CLR,,0.04,WeatherDisplay:10.37,2013-02-11 16:55:00,
2013-02-11 12:05:00,57.4,33.2,29.61,ESE,121,0.0,6.0,40,0.00,CLR,,0.04,WeatherDisplay:10.37,2013-02-11 17:05:00,
2013-02-11 12:10:00,57.4,32.6,29.61,SE,124,5.0,5.0,39,0.00,CLR,,0.04,WeatherDisplay:10.37,2013-02-11 17:10:00,
2013-02-11 12:20:00,57.9,33.7,29.60,SE,137,2.0,3.0,40,0.00,CLR,,0.04,WeatherDisplay:10.37,2013-02-11 17:20:00,
2013-02-11 12:25:00,58.5,33.6,29.59,ENE,62,3.0,3.0,39,0.00,CLR,,0.04,WeatherDisplay:10.37,2013-02-11 17:25:00,
2013-02-11 12:30:00,58.8,33.2,29.59,South,176,5.0,5.0,38,0.00,CLR,,0.04,WeatherDisplay:10.37,2013-02-11 17:30:00,
2013-02-11 12:40:00,59.1,31.5,29.60,ESE,111,3.0,7.0,35,0.00,CLR,,0.04,WeatherDisplay:10.37,2013-02-11 17:40:00,
2013-02-11 12:45:00,59.2,30.8,29.60,South,187,2.0,7.0,34,0.00,CLR,,0.04,WeatherDisplay:10.37,2013-02-11 17:45:00,
2013-02-11 12:50:00,59.4,30.2,29.59,SW,217,0.0,3.0,33,0.00,CLR,,0.04,WeatherDisplay:10.37,2013-02-11 17:50:00,
2013-02-11 12:55:00,59.9,31.4,29.59,NE,56,1.0,2.0,34,0.00,CLR,,0.04,WeatherDisplay:10.37,2013-02-11 17:55:00,
2013-02-11 13:00:00,60.3,31.0,29.58,SE,133,2.0,2.0,33,0.00,CLR,,0.04,WeatherDisplay:10.37,2013-02-11 18:00:00,
2013-02-11 13:05:00,60.4,30.4,29.59,SE,141,3.0,3.0,32,0.00,CLR,,0.04,WeatherDisplay:10.37,2013-02-11 18:05:00,
2013-02-11 13:10:00,60.4,29.6,29.58,SE,137,7.0,7.0,31,0.00,CLR,,0.04,WeatherDisplay:10.37,2013-02-11 18:10:00,
2013-02-11 13:15:00,60.4,27.1,29.58,SE,138,8.0,9.0,28,0.00,CLR,,0.04,WeatherDisplay:10.37,2013-02-11 18:15:00,
2013-02-11 13:20:00,60.5,27.2,29.58,ESE,104,0.0,9.0,28,0.00,CLR,,0.04,WeatherDisplay:10.37,2013-02-11 18:20:00,
2013-02-11 13:25:00,60.6,27.3,29.58,ESE,105,0.0,5.0,28,0.00,CLR,,0.04,WeatherDisplay:10.37,2013-02-11 18:25:00,
2013-02-11 13:35:00,59.8,22.9,29.58,East,101,0.0,5.0,24,0.00,CLR,,0.04,WeatherDisplay:10.37,2013-02-11 18:35:00,
2013-02-11 13:40:00,59.7,22.8,29.57,East,81,2.0,2.0,24,0.00,CLR,,0.04,WeatherDisplay:10.37,2013-02-11 18:40:00,
2013-02-11 13:45:00,59.9,23.0,29.57,East,93,0.0,4.0,24,0.00,CLR,,0.04,WeatherDisplay:10.37,2013-02-11 18:45:00,
2013-02-11 13:55:00,60.4,21.4,29.57,East,93,3.0,7.0,22,0.00,CLR,,0.04,WeatherDisplay:10.37,2013-02-11 18:55:00,
2013-02-11 14:00:00,60.4,21.4,29.57,SE,126,0.0,7.0,22,0.00,CLR,,0.04,WeatherDisplay:10.37,2013-02-11 19:00:00,
2013-02-11 14:05:00,60.5,18.0,29.56,East,92,10.0,12.0,19,0.00,CLR,,0.04,WeatherDisplay:10.37,2013-02-11 19:05:00,
2013-02-11 14:10:00,60.6,18.1,29.57,NE,51,2.0,3.0,19,0.00,CLR,,0.04,WeatherDisplay:10.37,2013-02-11 19:10:00,
2013-02-11 14:15:00,60.4,17.9,29.56,ESE,121,3.0,5.0,19,0.00,CLR,,0.04,WeatherDisplay:10.37,2013-02-11 19:15:00,
2013-02-11 14:20:00,60.4,17.9,29.57,SE,143,0.0,5.0,19,0.00,CLR,,0.04,WeatherDisplay:10.37,2013-02-11 19:20:00,
2013-02-11 14:25:00,60.4,17.9,29.56,ESE,119,1.0,3.0,19,0.00,CLR,,0.04,WeatherDisplay:10.37,2013-02-11 19:25:00,
2013-02-11 14:30:00,60.1,17.6,29.57,SE,125,1.0,3.0,19,0.00,CLR,,0.04,WeatherDisplay:10.37,2013-02-11 19:30:00,
2013-02-11 14:35:00,60.3,17.8,29.57,SE,126,5.0,5.0,19,0.00,CLR,,0.04,WeatherDisplay:10.37,2013-02-11 19:35:00,
2013-02-11 14:40:00,60.4,21.4,29.56,SE,128,1.0,5.0,22,0.00,CLR,,0.04,WeatherDisplay:10.37,2013-02-11 19:40:00,
2013-02-11 14:45:00,60.3,17.8,29.57,SSE,151,0.0,5.0,19,0.00,CLR,,0.04,WeatherDisplay:10.37,2013-02-11 19:45:00,
2013-02-11 14:50:00,60.4,21.4,29.57,SSE,159,1.0,2.0,22,0.00,CLR,,0.04,WeatherDisplay:10.37,2013-02-11 19:50:00,
2013-02-11 15:00:00,59.7,17.3,29.57,ESE,120,0.0,1.0,19,0.00,CLR,,0.04,WeatherDisplay:10.37,2013-02-11 20:00:00,
2013-02-11 15:05:00,59.2,16.9,29.58,ESE,111,0.0,0.0,19,0.00,CLR,,0.04,WeatherDisplay:10.37,2013-02-11 20:05:00,
2013-02-11 15:10:00,59.0,16.7,29.58,ESE,106,2.0,3.0,19,0.00,CLR,,0.04,WeatherDisplay:10.37,2013-02-11 20:10:00,
2013-02-11 15:15:00,58.6,16.4,29.57,East,91,0.0,3.0,19,0.00,CLR,,0.04,WeatherDisplay:10.37,2013-02-11 20:15:00,
2013-02-11 15:25:00,58.5,18.6,29.57,East,84,1.0,4.0,21,0.00,CLR,,0.04,WeatherDisplay:10.37,2013-02-11 20:25:00,
2013-02-11 15:30:00,58.3,16.1,29.57,ESE,114,1.0,3.0,19,0.00,CLR,,0.04,WeatherDisplay:10.37,2013-02-11 20:30:00,
2013-02-11 15:40:00,57.9,15.8,29.58,NNE,21,0.0,5.0,19,0.00,CLR,,0.04,WeatherDisplay:10.37,2013-02-11 20:40:00,
2013-02-11 15:45:00,57.8,18.1,29.58,NNE,18,1.0,5.0,21,0.00,CLR,,0.04,WeatherDisplay:10.37,2013-02-11 20:45:00,
2013-02-11 15:55:00,57.6,17.9,29.58,East,89,0.0,1.0,21,0.00,CLR,,0.04,WeatherDisplay:10.37,2013-02-11 20:55:00,
2013-02-11 16:00:00,57.4,17.7,29.58,South,170,5.0,5.0,21,0.00,CLR,,0.04,WeatherDisplay:10.37,2013-02-11 21:00:00,
2013-02-11 16:05:00,56.8,17.3,29.60,ESE,102,1.0,2.0,21,0.00,CLR,,0.04,WeatherDisplay:10.37,2013-02-11 21:05:00,
2013-02-11 16:10:00,56.7,17.1,29.60,NE,50,0.0,2.0,21,0.00,CLR,,0.04,WeatherDisplay:10.37,2013-02-11 21:10:00,
2013-02-11 16:15:00,56.5,19.1,29.60,NNE,17,1.0,1.0,23,0.00,CLR,,0.04,WeatherDisplay:10.37,2013-02-11 21:15:00,
2013-02-11 16:20:00,56.1,18.8,29.60,NNW,331,0.0,0.0,23,0.00,CLR,,0.04,WeatherDisplay:10.37,2013-02-11 21:20:00,
2013-02-11 16:25:00,55.8,21.3,29.61,East,86,0.0,0.0,26,0.00,CLR,,0.04,WeatherDisplay:10.37,2013-02-11 21:25:00,
2013-02-11 16:30:00,55.2,20.8,29.61,SE,132,0.0,2.0,26,0.00,CLR,,0.04,WeatherDisplay:10.37,2013-02-11 21:30:00,
2013-02-11 16:35:00,54.7,21.3,29.61,East,100,0.0,2.0,27,0.00,CLR,,0.04,WeatherDisplay:10.37,2013-02-11 21:35:00,
2013-02-11 16:40:00,54.1,22.5,29.61,NE,43,0.0,0.0,29,0.00,CLR,,0.04,WeatherDisplay:10.37,2013-02-11 21:40:00,
2013-02-11 16:45:00,53.6,22.9,29.62,North,2,0.0,0.0,30,0.00,CLR,,0.04,WeatherDisplay:10.37,2013-02-11 21:45:00,
2013-02-11 16:50:00,53.1,22.4,29.62,SSE,153,3.0,6.0,30,0.00,CLR,,0.04,WeatherDisplay:10.37,2013-02-11 21:50:00,
2013-02-11 16:55:00,52.5,21.9,29.63,NE,54,0.0,6.0,30,0.00,CLR,,0.04,WeatherDisplay:10.37,2013-02-11 21:55:00,
2013-02-11 17:00:00,52.2,23.2,29.63,NNW,339,1.0,1.0,32,0.00,CLR,,0.04,WeatherDisplay:10.37,2013-02-11 22:00:00,
2013-02-11 17:05:00,51.4,22.5,29.64,West,269,0.0,0.0,32,0.00,CLR,,0.04,WeatherDisplay:10.37,2013-02-11 22:05:00,
2013-02-11 17:10:00,50.9,22.8,29.66,West,265,0.0,0.0,33,0.00,CLR,,0.04,WeatherDisplay:10.37,2013-02-11 22:10:00,
2013-02-11 17:15:00,50.7,23.3,29.66,SSW,209,0.0,0.0,34,0.00,CLR,,0.04,WeatherDisplay:10.37,2013-02-11 22:15:00,
2013-02-11 17:20:00,50.2,23.5,29.67,SW,215,0.0,1.0,35,0.00,CLR,,0.04,WeatherDisplay:10.37,2013-02-11 22:20:00,
2013-02-11 17:25:00,50.1,23.5,29.67,SW,227,0.0,0.0,35,0.00,CLR,,0.04,WeatherDisplay:10.37,2013-02-11 22:25:00,
2013-02-11 17:30:00,49.3,22.8,29.67,South,177,0.0,0.0,35,0.00,CLR,,0.04,WeatherDisplay:10.37,2013-02-11 22:30:00,
2013-02-11 17:35:00,48.9,22.4,29.68,SSE,157,0.0,0.0,35,0.00,CLR,,0.04,WeatherDisplay:10.37,2013-02-11 22:35:00,
2013-02-11 17:40:00,48.4,22.6,29.68,WSW,252,0.0,0.0,36,0.00,CLR,,0.04,WeatherDisplay:10.37,2013-02-11 22:40:00,
2013-02-11 17:45:00,47.9,22.2,29.68,WNW,282,0.0,0.0,36,0.00,CLR,,0.04,WeatherDisplay:10.37,2013-02-11 22:45:00,
2013-02-11 17:50:00,47.3,22.3,29.69,SE,126,0.0,0.0,37,0.00,CLR,,0.04,WeatherDisplay:10.37,2013-02-11 22:50:00,
2013-02-11 17:55:00,46.9,22.0,29.69,ENE,63,0.0,0.0,37,0.00,CLR,,0.04,WeatherDisplay:10.37,2013-02-11 22:55:00,
2013-02-11 18:00:00,46.6,22.3,29.70,NE,46,0.0,0.0,38,0.00,CLR,,0.04,WeatherDisplay:10.37,2013-02-11 23:00:00,
2013-02-11 18:05:00,46.0,22.4,29.70,NNE,12,0.0,0.0,39,0.00,CLR,,0.04,WeatherDisplay:10.37,2013-02-11 23:05:00,
2013-02-11 18:10:00,45.5,21.9,29.71,NNE,26,0.0,0.0,39,0.00,CLR,,0.04,WeatherDisplay:10.37,2013-02-11 23:10:00,
2013-02-11 18:15:00,44.8,21.9,29.72,NNE,31,0.0,0.0,40,0.00,CLR,,0.04,WeatherDisplay:10.37,2013-02-11 23:15:00,
2013-02-11 18:20:00,44.2,21.4,29.73,NNW,348,1.0,2.0,40,0.00,CLR,,0.04,WeatherDisplay:10.37,2013-02-11 23:20:00,
2013-02-11 18:25:00,43.6,21.5,29.74,East,95,0.0,2.0,41,0.00,CLR,,0.04,WeatherDisplay:10.37,2013-02-11 23:25:00,
2013-02-11 18:30:00,43.0,20.9,29.74,SSW,205,0.0,0.0,41,0.00,CLR,,0.04,WeatherDisplay:10.37,2013-02-11 23:30:00,
2013-02-11 18:35:00,42.6,20.5,29.74,WNW,284,0.0,0.0,41,0.00,CLR,,0.04,WeatherDisplay:10.37,2013-02-11 23:35:00,
2013-02-11 18:40:00,42.0,20.0,29.75,West,263,0.0,0.0,41,0.00,CLR,,0.04,WeatherDisplay:10.37,2013-02-11 23:40:00,
2013-02-11 18:45:00,41.4,19.4,29.75,SSW,210,0.0,0.0,41,0.00,CLR,,0.04,WeatherDisplay:10.37,2013-02-11 23:45:00,
2013-02-11 18:50:00,41.0,19.6,29.76,NW,308,0.0,0.0,42,0.00,CLR,,0.04,WeatherDisplay:10.37,2013-02-11 23:50:00,
2013-02-11 18:55:00,40.4,19.1,29.76,NNW,342,0.0,0.0,42,0.00,CLR,,0.04,WeatherDisplay:10.37,2013-02-11 23:55:00,
2013-02-11 19:00:00,39.7,18.5,29.76,NNW,345,0.0,0.0,42,0.00,CLR,,0.04,WeatherDisplay:10.37,2013-02-12 00:00:00,
2013-02-11 19:05:00,39.4,18.2,29.76,SW,221,0.0,0.0,42,0.00,CLR,,0.04,WeatherDisplay:10.37,2013-02-12 00:05:00,
2013-02-11 19:10:00,38.7,18.1,29.78,SSE,150,0.0,0.0,43,0.00,CLR,,0.04,WeatherDisplay:10.37,2013-02-12 00:10:00,
2013-02-11 19:15:00,38.3,18.3,29.78,North,6,0.0,0.0,44,0.00,CLR,,0.04,WeatherDisplay:10.37,2013-02-12 00:15:00,
2013-02-11 19:20:00,38.1,18.1,29.78,North,360,0.0,0.0,44,0.00,CLR,,0.04,WeatherDisplay:10.37,2013-02-12 00:20:00,
2013-02-11 19:25:00,37.8,18.3,29.78,SSW,198,0.0,0.0,45,0.00,CLR,,0.04,WeatherDisplay:10.37,2013-02-12 00:25:00,
2013-02-11 19:30:00,37.4,18.0,29.78,SW,224,1.0,3.0,45,0.00,CLR,,0.04,WeatherDisplay:10.37,2013-02-12 00:30:00,
2013-02-11 19:35:00,37.0,18.1,29.78,West,268,0.0,3.0,46,0.00,CLR,,0.04,WeatherDisplay:10.37,2013-02-12 00:35:00,
2013-02-11 19:40:00,36.9,18.0,29.79,WNW,298,0.0,0.0,46,0.00,CLR,,0.04,WeatherDisplay:10.37,2013-02-12 00:40:00,
2013-02-11 19:45:00,36.7,18.3,29.78,SW,233,0.0,0.0,47,0.00,CLR,,0.04,WeatherDisplay:10.37,2013-02-12 00:45:00,
2013-02-11 19:50:00,36.5,18.2,29.79,SSW,203,0.0,0.0,47,0.00,CLR,,0.04,WeatherDisplay:10.37,2013-02-12 00:50:00,
2013-02-11 19:55:00,36.3,18.0,29.79,SSW,203,0.0,0.0,47,0.00,CLR,,0.04,WeatherDisplay:10.37,2013-02-12 00:55:00,
2013-02-11 20:00:00,36.1,18.3,29.80,South,189,0.0,0.0,48,0.00,CLR,,0.04,WeatherDisplay:10.37,2013-02-12 01:00:00,
2013-02-11 20:05:00,36.0,18.2,29.80,ESE,113,0.0,0.0,48,0.00,CLR,,0.04,WeatherDisplay:10.37,2013-02-12 01:05:00,
2013-02-11 20:10:00,35.8,18.0,29.80,SSE,158,0.0,0.0,48,0.00,CLR,,0.04,WeatherDisplay:10.37,2013-02-12 01:10:00,
2013-02-11 20:15:00,35.9,18.5,29.80,SSW,206,0.0,0.0,49,0.00,CLR,,0.04,WeatherDisplay:10.37,2013-02-12 01:15:00,
2013-02-11 20:20:00,36.0,19.1,29.79,West,272,0.0,0.0,50,0.00,CLR,,0.04,WeatherDisplay:10.37,2013-02-12 01:20:00,
2013-02-11 20:25:00,36.1,19.3,29.79,NNW,348,0.0,0.0,50,0.00,CLR,,0.04,WeatherDisplay:10.37,2013-02-12 01:25:00,
2013-02-11 20:30:00,36.1,19.3,29.80,SSE,162,0.0,0.0,50,0.00,CLR,,0.04,WeatherDisplay:10.37,2013-02-12 01:30:00,
2013-02-11 20:35:00,36.3,19.9,29.79,SSW,197,0.0,2.0,51,0.00,CLR,,0.04,WeatherDisplay:10.37,2013-02-12 01:35:00,
2013-02-11 20:40:00,36.5,20.1,29.79,NW,308,0.0,0.0,51,0.00,CLR,,0.04,WeatherDisplay:10.37,2013-02-12 01:40:00,
2013-02-11 20:45:00,36.9,20.4,29.79,ESE,122,0.0,0.0,51,0.00,CLR,,0.04,WeatherDisplay:10.37,2013-02-12 01:45:00,
2013-02-11 20:50:00,37.0,20.6,29.79,NNE,24,0.0,0.0,51,0.00,CLR,,0.04,WeatherDisplay:10.37,2013-02-12 01:50:00,
2013-02-11 20:55:00,37.5,20.6,29.79,SE,137,0.0,0.0,50,0.00,CLR,,0.04,WeatherDisplay:10.37,2013-02-12 01:55:00,
2013-02-11 21:00:00,37.6,20.6,29.79,South,174,0.0,1.0,50,0.00,CLR,,0.04,WeatherDisplay:10.37,2013-02-12 02:00:00,
2013-02-11 21:05:00,37.8,20.8,29.80,NNW,329,0.0,0.0,50,0.00,CLR,,0.04,WeatherDisplay:10.37,2013-02-12 02:05:00,
2013-02-11 21:10:00,37.8,20.8,29.80,WNW,300,0.0,0.0,50,0.00,CLR,,0.04,WeatherDisplay:10.37,2013-02-12 02:10:00,
2013-02-11 21:15:00,37.8,20.8,29.81,SW,236,0.0,0.0,50,0.00,CLR,,0.04,WeatherDisplay:10.37,2013-02-12 02:15:00,
2013-02-11 21:20:00,37.9,20.4,29.80,SSW,208,0.0,0.0,49,0.00,CLR,,0.04,WeatherDisplay:10.37,2013-02-12 02:20:00,
2013-02-11 21:25:00,37.8,20.3,29.81,SSE,163,0.0,0.0,49,0.00,CLR,,0.04,WeatherDisplay:10.37,2013-02-12 02:25:00,
2013-02-11 21:30:00,37.6,20.1,29.80,ESE,109,0.0,0.0,49,0.00,CLR,,0.04,WeatherDisplay:10.37,2013-02-12 02:30:00,
2013-02-11 21:40:00,37.6,20.1,29.81,North,352,0.0,0.0,49,0.00,CLR,,0.04,WeatherDisplay:10.37,2013-02-12 02:40:00,
2013-02-11 21:45:00,37.6,20.6,29.81,SSW,201,3.0,5.0,50,0.00,CLR,,0.04,WeatherDisplay:10.37,2013-02-12 02:45:00,
2013-02-11 21:50:00,37.7,20.7,29.81,West,259,0.0,5.0,50,0.00,CLR,,0.04,WeatherDisplay:10.37,2013-02-12 02:50:00,
2013-02-11 21:55:00,37.6,20.6,29.81,West,277,0.0,0.0,50,0.00,CLR,,0.04,WeatherDisplay:10.37,2013-02-12 02:55:00,
2013-02-11 22:00:00,37.6,20.6,29.82,SSW,192,0.0,0.0,50,0.00,CLR,,0.04,WeatherDisplay:10.37,2013-02-12 03:00:00,
2013-02-11 22:05:00,37.6,20.6,29.82,SSE,153,0.0,0.0,50,0.00,CLR,,0.04,WeatherDisplay:10.37,2013-02-12 03:05:00,
2013-02-11 22:10:00,37.4,20.5,29.82,South,181,0.0,0.0,50,0.00,CLR,,0.04,WeatherDisplay:10.37,2013-02-12 03:10:00,
2013-02-11 22:15:00,37.6,20.6,29.82,South,188,0.0,0.0,50,0.00,CLR,,0.04,WeatherDisplay:10.37,2013-02-12 03:15:00,
2013-02-11 22:20:00,37.6,20.6,29.82,SW,232,1.0,1.0,50,0.00,CLR,,0.04,WeatherDisplay:10.37,2013-02-12 03:20:00,
2013-02-11 22:25:00,37.4,20.4,29.82,WNW,289,0.0,0.0,50,0.00,CLR,,0.04,WeatherDisplay:10.37,2013-02-12 03:25:00,
2013-02-11 22:30:00,37.2,19.8,29.83,WNW,292,2.0,2.0,49,0.00,CLR,,0.04,WeatherDisplay:10.37,2013-02-12 03:30:00,
2013-02-11 22:35:00,37.4,19.4,29.82,SSE,161,2.0,6.0,48,0.00,CLR,,0.04,WeatherDisplay:10.37,2013-02-12 03:35:00,
2013-02-11 22:40:00,37.0,18.7,29.82,SE,133,0.0,5.0,47,0.00,CLR,,0.04,WeatherDisplay:10.37,2013-02-12 03:40:00,
2013-02-11 22:45:00,37.0,18.1,29.83,NNW,338,0.0,0.0,46,0.00,CLR,,0.04,WeatherDisplay:10.37,2013-02-12 03:45:00,
2013-02-11 22:50:00,37.0,18.1,29.83,SSE,154,0.0,1.0,46,0.00,CLR,,0.04,WeatherDisplay:10.37,2013-02-12 03:50:00,
2013-02-11 22:55:00,36.9,18.0,29.83,NW,304,1.0,5.0,46,0.00,CLR,,0.04,WeatherDisplay:10.37,2013-02-12 03:55:00,
2013-02-11 23:00:00,36.9,18.0,29.83,NNW,330,0.0,0.0,46,0.00,CLR,,0.04,WeatherDisplay:10.37,2013-02-12 04:00:00,
2013-02-11 23:05:00,36.7,17.3,29.83,SSE,152,0.0,0.0,45,0.00,CLR,,0.04,WeatherDisplay:10.37,2013-02-12 04:05:00,
2013-02-11 23:10:00,36.7,17.3,29.82,SSW,210,0.0,0.0,45,0.00,CLR,,0.04,WeatherDisplay:10.37,2013-02-12 04:10:00,
2013-02-11 23:15:00,36.5,17.1,29.83,SW,234,0.0,2.0,45,0.00,CLR,,0.04,WeatherDisplay:10.37,2013-02-12 04:15:00,
2013-02-11 23:20:00,36.5,17.1,29.83,WSW,237,0.0,0.0,45,0.00,CLR,,0.04,WeatherDisplay:10.37,2013-02-12 04:20:00,
2013-02-11 23:25:00,36.5,17.1,29.84,South,189,1.0,2.0,45,0.00,CLR,,0.04,WeatherDisplay:10.37,2013-02-12 04:25:00,
2013-02-11 23:30:00,36.5,17.1,29.83,SSE,152,0.0,2.0,45,0.00,CLR,,0.04,WeatherDisplay:10.37,2013-02-12 04:30:00,
2013-02-11 23:35:00,36.3,17.0,29.83,SE,137,0.0,1.0,45,0.00,CLR,,0.04,WeatherDisplay:10.37,2013-02-12 04:35:00,
2013-02-11 23:40:00,36.3,17.0,29.83,SSE,154,0.0,1.0,45,0.00,CLR,,0.04,WeatherDisplay:10.37,2013-02-12 04:40:00,
2013-02-11 23:45:00,36.1,16.8,29.84,NE,54,0.0,0.0,45,0.00,CLR,,0.04,WeatherDisplay:10.37,2013-02-12 04:45:00,
2013-02-11 23:50:00,36.3,17.0,29.84,NNE,15,0.0,0.0,45,0.00,CLR,,0.04,WeatherDisplay:10.37,2013-02-12 04:50:00,
2013-02-11 23:55:00,36.1,16.8,29.84,East,80,0.0,0.0,45,0.00,CLR,,0.04,WeatherDisplay:10.37,2013-02-12 04:55:00,